Regional Weather Roundup
Issued by NWS

Home | Current Version | Previous Version | Text Only | Print | Product List | Glossary On
Versions: 1 2 3 4 5 6 7 8 9 10 11 12 13 14 15 16 17 18 19 20 21 22 23 24 25 26 27
000
ASUS45 KBOU 260307
RWRCO

WEATHER ROUNDUP FOR COLORADO
NATIONAL WEATHER SERVICE DENVER/BOULDER CO
900 PM MDT SUN JUN 25 2017

NOTE: "FAIR" INDICATES FEW OR NO CLOUDS BELOW 12000 FEET WITH NO
SIGNIFICANT WEATHER AND/OR OBSTRUCTIONS TO VISIBILITY.

COZ001>005-013-030-031-260400-
...NORTHWEST COLORADO...

CITY           SKY/WX    TMP DP  RH WIND       PRES   REMARKS
CRAIG          FAIR      66  42  41 SE3       30.26S
HAYDEN         FAIR      70  30  23 NE6       30.29S
MEEKER         FAIR      65  32  29 NE8       30.26S
RABBIT EARS PA FAIR      52  28  40 NE8       30.59S
STEAMBOAT SPGS FAIR      65  33  30 NW6       30.31S
WALDEN         FAIR      57  23  26 N10       30.44R
$$

COZ006>008-011-260400-
...WEST CENTRAL VALLEYS...

CITY           SKY/WX    TMP DP  RH WIND       PRES   REMARKS
GRAND JUNCTION FAIR      86  26  11 NE10      30.07R
MONTROSE       FAIR      77  30  17 W6        30.16R
EAGLE          FAIR      74  30  19 E7        30.30R
RIFLE          FAIR      78  27  15 SW5       30.18R
DELTA          FAIR      88  25  10 N10       30.10S
NUCLA          FAIR      79  12   8 NW6       30.20R
$$

COZ017>023-064>068-260400-
...SOUTHWEST COLORADO...

CITY           SKY/WX    TMP DP  RH WIND       PRES   REMARKS
DURANGO        FAIR      78  24  13 NW9       30.20R
CORTEZ         FAIR      71  33  24 MISG      30.15S
PAGOSA SPRINGS FAIR      73  21  14 N3        30.29R
TELLURIDE      FAIR      68  23  18 CALM      30.46R
WOLF CREEK PAS FAIR      55  10  16 CALM      30.70S
$$

COZ009-010-012-014-032>034-037-058>063-260400-
...CENTRAL COLORADO...

CITY           SKY/WX    TMP DP  RH WIND       PRES   REMARKS
ASPEN          FAIR      67  23  19 W7        30.34R
BUENA VISTA    MOCLDY    67  45  43 E6        30.38R
COPPER MTN     FAIR      54  23  30 NW10      30.69R
BERTHOUD PASS  FAIR      43  32  65 NW22G29   30.71S
COTTONWOOD PAS FAIR      63  43  48 SE10G23   30.51R
GUNNISON       FAIR      67  32  27 N9        30.32R
KREMMLING      NOT AVBL
LEADVILLE      FAIR      60  25  26 N12       30.50R
MONARCH PASS     N/A     48  45  87 NE18      30.76S
SALIDA         FAIR      68  49  51 SE22G30   30.41R
SUNLIGHT       FAIR      54  25  32 NW7       30.62S
WILKERSON PASS FOG       45  43  93 E13G20    30.67R VSB 1/2
$$

COZ069>075-260400-
...SAN LUIS VALLEY/SANGRE DE CRISTO MOUNTAINS...

CITY           SKY/WX    TMP DP  RH WIND       PRES   REMARKS
ALAMOSA        FAIR      64  50  60 E16G24    30.29R
DEL NORTE      FAIR      74  20  13 N17G23    30.31S
LA VETA PASS   DRZL/FOG  50  46  87 MISG      30.65F VSB 1/4
SAGUACHE       FAIR      73  21  14 NW9       30.31S
$$

COZ035-036-038>040-260400-
...NORTHERN COLORADO FRONT RANGE...

CITY           SKY/WX    TMP DP  RH WIND       PRES   REMARKS
DENVER INTL AP MOCLDY    64  53  67 E13       30.31R
DMNS CITY PARK   N/A     67  53  62 E15       30.31R
AURORA         PTCLDY    63  54  73 E10       30.33R
FRONT RANGE AP MOCLDY    64  54  68 E10G18    30.33R
ERIE MUNI ARPT MOCLDY    66  51  58 NE3       30.30R
BOULDER MUN AP FAIR      64  52  63 CALM      30.30S
CENTENNIAL     MOCLDY    65  54  67 E12       30.32R
BROOMFIELD     CLOUDY    66  50  55 N6        30.33R
FORT COLLINS   FAIR      66  51  58 CALM      30.30R
LONGMONT       FAIR      67  53  59 CALM      30.32R
$$

COZ041-046-047-076>085-087-088-260400-
...PIKES PEAK/PALMER DIVIDE AND SOUTHERN FOOTHILLS...

CITY           SKY/WX    TMP DP  RH WIND       PRES   REMARKS
COLO. SPRINGS  CLOUDY    62  58  86 E10       30.37R
A. F. ACADEMY  CLOUDY    63  54  72 SE9       30.37R
SCHRIEVER AFB  MOCLDY    61  57  88 E10       30.37R
CHEYENNE MTN   RAIN      58  56  94 E6        30.36R
ELLICOTT       MOCLDY   N/A N/A N/A SE16      30.35R
FALCON           N/A     59  54  84 E9        30.41R
FORT CARSON    DRIZZLE   64  55  72 E13       30.34R
LIMON          CLOUDY    61  55  81 SE14      30.34R
MONUMENT HILL  MOCLDY    55  52  88 SE9       30.41R
CANON CITY     CLOUDY    70  59  68 E13       30.31R
WALSENBURG     CLOUDY    64  61  88 N7        30.33R
TRINIDAD       HVY RAIN  65  57  75 W7G20     30.28R VSB 1/2
$$

COZ042>045-048>051-090-091-260400-
...NORTHEAST COLORADO...

CITY           SKY/WX    TMP DP  RH WIND       PRES   REMARKS
GREELEY ARPT   FAIR      65  54  67 SE7       30.29R
AKRON          FAIR      58  52  80 SE9       30.30R
BURLINGTON     MOCLDY    60  58  92 SE8       30.30R
WRAY           FAIR      59  54  82 S6        30.28S
YUMA           FAIR      55  54  94 SE8       30.28S
STERLING       FAIR      61  54  77 S7        30.26S
HOLYOKE        NOT AVBL
FORT MORGAN    FAIR      60  53  78 SE8       30.30R
$$

COZ086-089-092>099-260400-
...SOUTHEAST COLORADO...

CITY           SKY/WX    TMP DP  RH WIND       PRES   REMARKS
PUEBLO         CLOUDY    69  59  70 E15       30.27R
LA JUNTA       CLOUDY    66  61  84 E15       30.23R
LAMAR          CLOUDY    65  59  81 E14       30.23R
SPRINGFIELD      N/A     60  59  96 SE12      30.23S
$$




USA.gov is the U.S. government's official web portal to all federal, state and local government web resources and services.